Tracking 29892 objects as of 21-Nov-2024
HD Live streaming from Space Station
objects crossing your sky now

APRIZESAT 1

Track APRIZESAT 1 now!
10-day predictions
APRIZESAT 1 is classified as:


NORAD ID: 28372
Int'l Code: 2004-025G
Perigee: 696.4 km
Apogee: 762.0 km
Inclination: 98.6 °
Period: 99.2 minutes
Semi major axis: 7100 km
RCS: 0.0588 m2 (small)
Launch date: June 29, 2004
Source: United States (US)
Launch site: TYURATAM MISSILE AND SPACE COMPLEX (TTMTR)

Uplink (MHz):
Downlink (MHz):
Beacon (MHz):
Mode:
Call sign:
Status: Unknown


Messaging services.
Your satellite tracking list
Your tracking list is empty




NASA's NSSDC Master Catalog

Two Line Element Set (TLE):
1 28372U 04025G   24325.90236071  .00000728  00000-0  19338-3 0  9991
2 28372  98.6093 310.6694 0046199  97.8663 262.7779 14.51088652 78742
Source of the keplerian elements: AFSPC